When you browse on this site, cookies collect data to enhance your experience and personalize the content and advertising you see.
Visit our Privacy Policy to learn more. By continuing to use the site, you agree to this use of cookies and data.
  • In Hungary
  • List of Countries
  • For 7 days
  • Water Temperature
  • Weather Map
  • News
  • Weather Widgets
  • user-avatar
    Login

    Hourly Weather Beglica

    Today, 15 October, Tuesday

    Time Temperature Precipitation Wind Pressure Humidity
    00:00 +16°C° 0 mm 1 mps 766 mmHg 53%
    01:00 +15°C° 0 mm 1 mps 765 mmHg 54%
    02:00 +15°C° 0 mm 1 mps 765 mmHg 55%
    03:00 +15°C° 0 mm 1 mps 765 mmHg 56%
    04:00 +15°C° 0 mm 1 mps 765 mmHg 57%
    05:00 +14°C° 0 mm 1 mps 765 mmHg 58%
    06:00 +14°C° 0 mm 1 mps 764 mmHg 59%
    07:00 +15°C° 0 mm 1 mps 765 mmHg 56%
    08:00 +16°C° 0 mm 1 mps 765 mmHg 53%
    09:00 +18°C° 0 mm 1 mps 765 mmHg 50%
    10:00 +19°C° 0 mm 1 mps 765 mmHg 45%
    11:00 +21°C° 0 mm 1 mps 765 mmHg 41%
    12:00 +22°C° 0 mm 1 mps 764 mmHg 36%
    13:00 +23°C° 0 mm 1 mps 764 mmHg 35%
    14:00 +23°C° 0 mm 1 mps 764 mmHg 33%
    15:00 +24°C° 0 mm 1 mps 764 mmHg 31%
    16:00 +23°C° 0 mm 1 mps 764 mmHg 34%
    17:00 +21°C° 0 mm 1 mps 763 mmHg 37%
    18:00 +20°C° 0 mm 1 mps 763 mmHg 40%
    19:00 +20°C° 0 mm 1 mps 763 mmHg 41%
    20:00 +19°C° 0 mm 1 mps 764 mmHg 43%
    21:00 +18°C° 0 mm 2 mps 764 mmHg 45%
    22:00 +17°C° 0 mm 2 mps 764 mmHg 47%
    23:00 +17°C° 0 mm 2 mps 764 mmHg 49%

    Tomorrow, 16 October, Wednesday

    Time Temperature Precipitation Wind Pressure Humidity
    00:00 +17°C° 0 mm 2 mps 764 mmHg 51%
    01:00 +16°C° 0 mm 3 mps 764 mmHg 55%
    02:00 +16°C° 0 mm 3 mps 764 mmHg 58%
    03:00 +16°C° 0 mm 3 mps 764 mmHg 61%
    04:00 +14°C° 0 mm 3 mps 764 mmHg 64%
    05:00 +14°C° 0 mm 3 mps 764 mmHg 66%
    06:00 +14°C° 0 mm 3 mps 764 mmHg 69%
    07:00 +14°C° 0 mm 3 mps 764 mmHg 66%
    08:00 +15°C° 0 mm 4 mps 764 mmHg 64%
    09:00 +17°C° 0 mm 4 mps 765 mmHg 61%
    10:00 +19°C° 0 mm 4 mps 765 mmHg 56%
    11:00 +20°C° 0 mm 4 mps 765 mmHg 50%
    12:00 +22°C° 0 mm 4 mps 765 mmHg 45%
    13:00 +22°C° 0 mm 4 mps 764 mmHg 44%
    14:00 +23°C° 0 mm 5 mps 764 mmHg 44%
    15:00 +23°C° 0 mm 5 mps 764 mmHg 43%
    16:00 +22°C° 0 mm 5 mps 764 mmHg 48%
    17:00 +21°C° 0 mm 5 mps 764 mmHg 53%
    18:00 +20°C° 0 mm 5 mps 764 mmHg 57%
    19:00 +19°C° 0 mm 5 mps 764 mmHg 62%
    20:00 +19°C° 0 mm 5 mps 764 mmHg 66%
    21:00 +17°C° 0 mm 6 mps 764 mmHg 70%
    22:00 +16°C° 0 mm 6 mps 764 mmHg 72%
    23:00 +16°C° 0 mm 6 mps 764 mmHg 74%

    Day after tomorrow, 17 October, Thursday

    Time Temperature Precipitation Wind Pressure Humidity
    00:00 +15°C° 0 mm 5 mps 764 mmHg 75%
    01:00 +15°C° 0 mm 5 mps 764 mmHg 77%
    02:00 +14°C° 0 mm 5 mps 764 mmHg 78%
    03:00 +14°C° 0 mm 6 mps 764 mmHg 79%
    04:00 +13°C° 0 mm 6 mps 764 mmHg 80%
    05:00 +13°C° 0 mm 6 mps 764 mmHg 82%
    06:00 +13°C° 0 mm 6 mps 764 mmHg 83%
    07:00 +13°C° 0 mm 6 mps 764 mmHg 78%
    08:00 +14°C° 0 mm 6 mps 764 mmHg 74%
    09:00 +14°C° 0 mm 6 mps 764 mmHg 70%
    10:00 +16°C° 0 mm 6 mps 764 mmHg 62%
    11:00 +19°C° 0 mm 6 mps 764 mmHg 55%
    12:00 +21°C° 0 mm 6 mps 763 mmHg 48%
    13:00 +21°C° 0 mm 6 mps 763 mmHg 45%
    14:00 +22°C° 0 mm 5 mps 763 mmHg 42%
    15:00 +23°C° 0 mm 5 mps 763 mmHg 40%
    16:00 +22°C° 0 mm 5 mps 762 mmHg 44%
    17:00 +21°C° 0 mm 4 mps 762 mmHg 47%
    18:00 +20°C° 0 mm 4 mps 762 mmHg 51%
    19:00 +19°C° 0 mm 4 mps 762 mmHg 54%
    20:00 +18°C° 0 mm 4 mps 762 mmHg 57%
    21:00 +18°C° 0 mm 4 mps 762 mmHg 60%
    22:00 +17°C° 0 mm 4 mps 762 mmHg 62%
    23:00 +15°C° 0 mm 4 mps 762 mmHg 64%

    18 October, Friday

    Time Temperature Precipitation Wind Pressure Humidity
    00:00 +15°C° 0 mm 4 mps 762 mmHg 67%
    01:00 +14°C° 0 mm 3 mps 762 mmHg 69%
    02:00 +14°C° 0 mm 3 mps 762 mmHg 71%
    03:00 +13°C° 0 mm 3 mps 762 mmHg 73%
    04:00 +13°C° 0 mm 3 mps 762 mmHg 74%
    05:00 +13°C° 0 mm 3 mps 762 mmHg 76%
    06:00 +12°C° 0 mm 3 mps 762 mmHg 78%
    07:00 +13°C° 0 mm 3 mps 762 mmHg 75%
    08:00 +14°C° 0 mm 3 mps 762 mmHg 71%
    09:00 +16°C° 0 mm 3 mps 762 mmHg 68%
    10:00 +17°C° 0 mm 3 mps 762 mmHg 62%
    11:00 +19°C° 0 mm 2 mps 762 mmHg 56%
    12:00 +21°C° 0 mm 2 mps 762 mmHg 50%
    13:00 +21°C° 0 mm 2 mps 762 mmHg 47%
    14:00 +23°C° 0 mm 1 mps 761 mmHg 44%
    15:00 +24°C° 0 mm 1 mps 761 mmHg 40%
    16:00 +23°C° 0 mm 1 mps 761 mmHg 43%
    17:00 +22°C° 0 mm 1 mps 761 mmHg 45%
    18:00 +21°C° 0 mm 1 mps 761 mmHg 48%
    19:00 +20°C° 0 mm 1 mps 761 mmHg 49%
    20:00 +19°C° 0 mm 2 mps 762 mmHg 49%
    21:00 +18°C° 0 mm 2 mps 762 mmHg 50%
    22:00 +18°C° 0 mm 2 mps 762 mmHg 52%
    23:00 +17°C° 0 mm 2 mps 762 mmHg 54%

    19 October, Saturday

    Time Temperature Precipitation Wind Pressure Humidity
    00:00 +17°C° 0 mm 3 mps 762 mmHg 56%
    01:00 +16°C° 0 mm 3 mps 762 mmHg 58%
    02:00 +16°C° 0 mm 3 mps 763 mmHg 60%
    03:00 +14°C° 0 mm 3 mps 763 mmHg 62%
    04:00 +14°C° 0 mm 3 mps 763 mmHg 65%
    05:00 +13°C° 0 mm 3 mps 763 mmHg 67%
    06:00 +13°C° 0 mm 3 mps 764 mmHg 70%
    07:00 +14°C° 0 mm 3 mps 764 mmHg 67%
    08:00 +16°C° 0 mm 3 mps 764 mmHg 65%
    09:00 +16°C° 0 mm 3 mps 764 mmHg 62%
    10:00 +18°C° 0 mm 3 mps 764 mmHg 57%
    11:00 +19°C° 0 mm 3 mps 764 mmHg 52%
    12:00 +21°C° 0 mm 2 mps 764 mmHg 47%
    13:00 +21°C° 0 mm 2 mps 764 mmHg 46%
    14:00 +21°C° 0 mm 2 mps 764 mmHg 44%
    15:00 +23°C° 0 mm 2 mps 764 mmHg 43%
    16:00 +21°C° 0 mm 2 mps 764 mmHg 46%
    17:00 +20°C° 0 mm 2 mps 764 mmHg 49%
    18:00 +19°C° 0 mm 2 mps 764 mmHg 52%
    19:00 +18°C° 0 mm 3 mps 764 mmHg 56%
    20:00 +18°C° 0 mm 4 mps 765 mmHg 60%
    21:00 +16°C° 0 mm 5 mps 765 mmHg 63%
    22:00 +15°C° 0 mm 5 mps 765 mmHg 66%
    23:00 +15°C° 0 mm 5 mps 765 mmHg 69%

    20 October, Sunday

    Time Temperature Precipitation Wind Pressure Humidity
    00:00 +14°C° 0 mm 5 mps 765 mmHg 72%
    01:00 +14°C° 0 mm 5 mps 765 mmHg 74%
    02:00 +13°C° 0 mm 5 mps 765 mmHg 75%
    03:00 +13°C° 0 mm 5 mps 765 mmHg 77%
    04:00 +12°C° 0 mm 5 mps 765 mmHg 77%
    05:00 +12°C° 0 mm 5 mps 765 mmHg 78%
    06:00 +12°C° 0 mm 5 mps 765 mmHg 78%
    07:00 +12°C° 0 mm 5 mps 765 mmHg 73%
    08:00 +13°C° 0 mm 5 mps 765 mmHg 68%
    09:00 +14°C° 0 mm 5 mps 765 mmHg 63%
    10:00 +15°C° 0 mm 5 mps 765 mmHg 57%
    11:00 +17°C° 0 mm 5 mps 765 mmHg 51%
    12:00 +20°C° 0 mm 5 mps 765 mmHg 44%
    13:00 +20°C° 0 mm 5 mps 765 mmHg 43%
    14:00 +21°C° 0 mm 5 mps 765 mmHg 42%
    15:00 +22°C° 0 mm 5 mps 765 mmHg 41%
    16:00 +21°C° 0 mm 5 mps 765 mmHg 43%
    17:00 +20°C° 0 mm 5 mps 765 mmHg 44%
    18:00 +19°C° 0 mm 5 mps 765 mmHg 46%
    19:00 +17°C° 0 mm 6 mps 765 mmHg 49%
    20:00 +16°C° 0 mm 6 mps 766 mmHg 52%
    21:00 +15°C° 0 mm 6 mps 766 mmHg 54%
    22:00 +15°C° 0 mm 6 mps 766 mmHg 56%
    23:00 +14°C° 0 mm 6 mps 766 mmHg 58%
    Show more